[[{"header":{"parameterUnit":"m.s-1","parameterCategory":1,"la1":30.2991,"la2":30.254,"lo1":-89.0895,"lo2":-89.0444,"dy":0.0017,"dx":0.0017,"nx":28,"ny":28,"refTime":"2025-04-17T03:00:00:Z","depth":0,"parameterNumber":2,"parameterNumberName":"U-component_of_WINDS"},"data":[0,0,0,0,0,0,0,0,0,0,0,0,0,0,0,0,0,0,0,0,0,0,0,0,0,0,0,0,0,0,0,0,0,0,0,0,0,0,0,0,0,0,0,0,0,0,0,0,0,0,0,0,0,0,0,0,0,0,-2.0733,-2.0733,0,-2.071,-2.071,-2.071,-2.0679,-2.0679,-2.0678,-2.0678,-2.0653,-2.0653,-2.0653,0,0,0,0,0,0,0,0,0,0,0,0,0,-2.0751,-2.0751,-2.0733,-2.0733,-2.0733,-2.071,-2.071,-2.0709,-2.0679,-2.0679,-2.0678,-2.0677,-2.0653,-2.0653,-2.0653,0,0,0,0,0,0,0,0,0,0,0,0,0,-2.0737,-2.0751,-2.0733,-2.0715,-2.0713,-2.071,-2.071,-2.0709,-2.0679,-2.0678,-2.0678,-2.0677,-2.0653,-2.0653,-2.0653,-2.0666,0,0,-2.0652,-2.0652,0,0,0,0,0,0,0,0,-2.0738,-2.0737,-2.0718,-2.0716,-2.0714,-2.0697,-2.0707,-2.0695,-2.0679,-2.0692,-2.0678,-2.0677,-2.0668,-2.0666,-2.0664,-2.0665,-2.0664,-2.0652,-2.0651,-2.0651,-2.0651,0,0,0,0,0,0,0,-2.0739,-2.0738,-2.0724,-2.0718,-2.0715,-2.0708,-2.0705,-2.0705,-2.0684,-2.0691,-2.0689,-2.0686,-2.0667,-2.0664,-2.0663,-2.0663,-2.0652,-2.0651,-2.0651,-2.0651,-2.0674,-2.0675,0,0,0,0,0,0,-2.0743,-2.0739,-2.0725,-2.0723,-2.0725,-2.0708,-2.0705,-2.0703,-2.0684,-2.0681,-2.0687,-2.0685,-2.0665,-2.0663,-2.0662,-2.0676,-2.0651,-2.0651,-2.0651,-2.0674,-2.0675,-2.0676,0,0,0,0,0,0,-2.0743,-2.0742,-2.0726,-2.073,-2.0728,-2.0709,-2.0707,-2.0703,-2.07,-2.0681,-2.0678,-2.0688,-2.0664,-2.0662,-2.0665,-2.0675,-2.0651,-2.0651,-2.0673,-2.0674,-2.0675,-2.0705,0,0,0,0,0,0,-2.0744,-2.0742,-2.0747,-2.0731,-2.0728,-2.0729,-2.0707,-2.0703,-2.07,-2.0697,-2.0681,-2.0678,-2.0664,-2.0666,-2.0665,-2.0674,-2.065,-2.0672,-2.0673,-2.0675,-2.0703,-2.0707,-2.0711,0,0,0,0,0,-2.0745,-2.0756,-2.0747,-2.0746,-2.0733,-2.073,-2.0728,-2.0712,-2.0701,-2.0705,-2.0694,-2.0678,-2.0675,-2.0666,-2.0665,-2.0674,-2.0671,-2.0673,-2.0675,-2.0702,-2.0707,-2.0711,0,0,0,0,0,0,-2.0774,-2.0754,-2.0744,-2.075,-2.0742,-2.0725,-2.073,-2.0717,-2.0712,-2.0709,-2.0689,-2.0686,-2.0691,-2.0683,-2.0675,-2.0687,-2.0671,-2.0672,-2.0692,-2.0696,-2.07,-2.0701,-2.065,0,0,0,0,0,-2.0781,-2.078,-2.0763,-2.077,-2.0766,-2.0749,-2.0747,-2.0735,-2.0726,-2.0722,-2.0711,-2.0702,-2.0699,-2.0697,-2.0693,-2.0703,-2.0699,-2.0708,-2.0712,-2.0715,-2.0717,-2.0721,-2.0726,-2.0681,-2.0681,-2.0681,0,0,-2.0795,-2.0784,-2.0785,-2.0775,-2.0768,-2.0768,-2.0746,-2.0747,-2.0746,-2.0722,-2.0724,-2.0716,-2.0705,-2.0711,-2.0713,-2.0705,-2.0728,-2.0718,-2.072,-2.072,-2.0724,-2.0728,-2.0732,-2.0683,-2.0682,-2.0682,0,0,-2.0822,-2.0813,-2.0819,-2.0812,-2.0801,-2.0789,-2.0791,-2.0776,-2.0769,-2.0771,-2.0753,-2.0753,-2.0748,-2.0741,-2.0737,-2.0762,-2.0748,-2.0762,-2.0781,-2.0786,-2.0789,-2.0792,-2.0801,-2.0805,-2.0763,-2.0763,-2.0763,0,-2.0841,-2.084,-2.0823,-2.0825,-2.0821,-2.08,-2.0806,-2.08,-2.0788,-2.0786,-2.0777,-2.0771,-2.0762,-2.0766,-2.0773,-2.077,-2.0771,-2.0763,-2.079,-2.0793,-2.0796,-2.0804,-2.0807,-2.0765,-2.0765,-2.0765,-2.0765,0,-2.0864,-2.0864,-2.0869,-2.0859,-2.0856,-2.086,-2.0844,-2.0843,-2.0832,-2.0822,-2.0825,-2.0814,-2.0807,-2.0808,-2.0797,-2.0811,-2.0806,-2.0794,-2.0777,-2.0802,-2.0809,-2.0812,-2.0767,-2.0767,-2.0766,-2.0766,0,0,-2.0906,-2.0888,-2.089,-2.0885,-2.0872,-2.0872,-2.0875,-2.0869,-2.0869,-2.0862,-2.0864,-2.0861,-2.085,-2.0846,-2.0834,-2.0838,-2.0859,-2.0825,-2.0825,-2.0832,-2.0875,-2.0884,-2.0888,-2.0851,-2.0851,-2.0852,-2.0876,0,-2.093,-2.0934,-2.0919,-2.0927,-2.0927,-2.0908,-2.091,-2.0903,-2.0894,-2.0892,-2.0882,-2.088,-2.0866,-2.0863,-2.0867,-2.0856,-2.0868,-2.0854,-2.0852,-2.0852,-2.0855,-2.0891,-2.0901,-2.0924,-2.0878,-2.0879,-2.0879,0,-2.0957,-2.0952,-2.096,-2.0948,-2.0947,-2.095,-2.0944,-2.0943,-2.0934,-2.0927,-2.0923,-2.091,-2.0912,-2.0897,-2.09,-2.0891,-2.089,-2.0885,-2.0885,-2.0883,-2.0867,-2.0891,-2.0931,-2.0934,-2.0884,-2.0883,-2.0883,0,-2.0987,-2.0983,-2.0987,-2.0984,-2.0969,-2.0971,-2.0966,-2.0956,-2.0954,-2.0949,-2.0948,-2.0943,-2.094,-2.0937,-2.0923,-2.0913,-2.0928,-2.0911,-2.0922,-2.0922,-2.0925,-2.0925,-2.0965,-2.0925,-2.0925,-2.0925,-2.0925,0,-2.1015,-2.102,-2.1,-2.1003,-2.1009,-2.0992,-2.0999,-2.0991,-2.0983,-2.0984,-2.0967,-2.0968,-2.095,-2.0949,-2.0938,-2.0943,-2.0942,-2.0936,-2.0933,-2.0937,-2.0938,-2.0935,-2.0933,-2.0926,-2.0926,-2.0926,-2.0926,0,-2.1049,-2.1036,-2.1039,-2.1025,-2.1022,-2.1027,-2.1015,-2.1017,-2.1008,-2.1009,-2.1008,-2.0993,-2.0992,-2.0978,-2.0973,-2.0965,-2.0974,-2.0968,-2.0977,-2.0975,-2.0986,-2.0985,-2.1025,-2.103,-2.0988,-2.0988,-2.0988,0,-2.1067,-2.1071,-2.1058,-2.1057,-2.1052,-2.1052,-2.1049,-2.1034,-2.1033,-2.1024,-2.1027,-2.1024,-2.1021,-2.1019,-2.1008,-2.1004,-2.0998,-2.1012,-2.0997,-2.1001,-2.0998,-2.0997,-2.0998,-2.1015,-2.1016,-2.1016,-2.1016,0,-2.11,-2.1094,-2.1091,-2.1087,-2.1085,-2.1081,-2.1076,-2.1077,-2.106,-2.1059,-2.1057,-2.1055,-2.105,-2.1048,-2.1042,-2.1036,-2.1024,-2.1022,-2.1024,-2.1028,-2.1033,-2.103,-2.0985,-2.102,-2.102,-2.102,-2.1019,-2.1019,-2.1127,-2.1129,-2.1121,-2.1119,-2.1114,-2.1109,-2.1111,-2.1102,-2.11,-2.1095,-2.1086,-2.1086,-2.1078,-2.107,-2.1065,-2.1065,-2.1057,-2.106,-2.1061,-2.1062,-2.1064,-2.1033,-2.1064,-2.1064,-2.1064,-2.1063,-2.1063,0,-2.1159,-2.1153,-2.1152,-2.1145,-2.1144,-2.1133,-2.1127,-2.1126,-2.1126,-2.112,-2.1118,-2.1116,-2.1114,-2.1103,-2.1099,-2.1101,-2.1095,-2.1101,-2.11,-2.1099,-2.1071,-2.107,-2.1106,-2.1106,-2.1106,-2.1106,-2.1106,-2.1106,-2.1176,-2.118,-2.1173,-2.1174,-2.1168,-2.1168,-2.1165,-2.1162,-2.1157,-2.1156,-2.1154,-2.1147,-2.1139,-2.1135,-2.1132,-2.1129,-2.1129,-2.1136,-2.1131,-2.1105,-2.1101,-2.1097,-2.1095,-2.1136,-2.1136,-2.1159,-2.1159,-2.1159]},{"header":{"parameterUnit":"m.s-1","parameterCategory":1,"la1":30.2991,"la2":30.254,"lo1":-89.0895,"lo2":-89.0444,"dy":0.0017,"dx":0.0017,"nx":28,"ny":28,"refTime":"2025-04-17T03:00:00:Z","depth":0,"parameterNumber":3,"parameterNumberName":"V-component_of_WINDS"},"data":[0,0,0,0,0,0,0,0,0,0,0,0,0,0,0,0,0,0,0,0,0,0,0,0,0,0,0,0,0,0,0,0,0,0,0,0,0,0,0,0,0,0,0,0,0,0,0,0,0,0,0,0,0,0,0,0,0,0,5.4717,5.4717,0,5.4712,5.4712,5.4712,5.4693,5.4693,5.4692,5.4692,5.4684,5.4684,5.4684,0,0,0,0,0,0,0,0,0,0,0,0,0,5.4707,5.4708,5.4717,5.4717,5.4717,5.4712,5.4712,5.4712,5.4693,5.4693,5.4692,5.4692,5.4684,5.4684,5.4684,0,0,0,0,0,0,0,0,0,0,0,0,0,5.4708,5.4708,5.4717,5.4707,5.4706,5.4712,5.4712,5.4712,5.4693,5.4693,5.4692,5.4692,5.4684,5.4684,5.4684,5.4699,0,0,5.4685,5.4685,0,0,0,0,0,0,0,0,5.4708,5.4708,5.4708,5.4708,5.4706,5.4703,5.4706,5.4707,5.4694,5.4698,5.4692,5.4691,5.469,5.469,5.469,5.4698,5.4698,5.4685,5.4685,5.4685,5.4685,0,0,0,0,0,0,0,5.4708,5.4708,5.4715,5.4708,5.4707,5.4702,5.4701,5.4706,5.4698,5.4698,5.4696,5.4696,5.469,5.469,5.469,5.4698,5.4685,5.4685,5.4685,5.4686,5.4718,5.4719,0,0,0,0,0,0,5.471,5.4708,5.4715,5.4715,5.4706,5.4703,5.4702,5.4704,5.4698,5.4696,5.4697,5.4695,5.469,5.469,5.469,5.4707,5.4685,5.4686,5.4686,5.4718,5.4719,5.4719,0,0,0,0,0,0,5.471,5.471,5.4715,5.4711,5.4711,5.4704,5.4706,5.4705,5.4705,5.4697,5.4695,5.4699,5.469,5.4689,5.4697,5.4707,5.4686,5.4686,5.4717,5.4718,5.4719,5.4741,0,0,0,0,0,0,5.4709,5.471,5.4716,5.4712,5.4712,5.4723,5.4707,5.4705,5.4706,5.4704,5.4699,5.4697,5.4689,5.4697,5.4697,5.4707,5.4686,5.4716,5.4717,5.4719,5.474,5.4743,5.4746,0,0,0,0,0,5.4709,5.4721,5.4717,5.4717,5.4719,5.4724,5.4724,5.4715,5.4707,5.4712,5.4708,5.4697,5.4706,5.4698,5.4698,5.4708,5.4715,5.4717,5.4719,5.4738,5.4742,5.4746,0,0,0,0,0,0,5.4726,5.4721,5.4715,5.4726,5.4726,5.4721,5.4727,5.472,5.472,5.4718,5.4707,5.4706,5.4716,5.4712,5.4704,5.4722,5.4709,5.4711,5.4724,5.4728,5.4731,5.4731,5.4686,0,0,0,0,0,5.4731,5.4736,5.4731,5.4742,5.4742,5.4735,5.4736,5.473,5.4729,5.4728,5.4723,5.4721,5.4724,5.4725,5.4727,5.4739,5.4738,5.4746,5.4749,5.4752,5.4753,5.4761,5.4765,5.4725,5.4725,5.4725,0,0,5.4741,5.4739,5.4743,5.4745,5.4744,5.4749,5.4734,5.474,5.4744,5.4728,5.4736,5.4733,5.473,5.4741,5.4745,5.4738,5.4764,5.4754,5.4756,5.4756,5.4763,5.4767,5.477,5.4726,5.4726,5.4725,0,0,5.4763,5.4762,5.4771,5.4771,5.477,5.4766,5.4768,5.4764,5.4762,5.477,5.4759,5.4763,5.4767,5.4766,5.4766,5.479,5.478,5.479,5.4806,5.4814,5.4817,5.482,5.4829,5.4832,5.4792,5.4792,5.4792,0,5.4776,5.4784,5.4777,5.4784,5.4786,5.4774,5.4783,5.4783,5.4782,5.4783,5.4776,5.4782,5.4779,5.479,5.4796,5.4796,5.4799,5.4791,5.4817,5.482,5.4822,5.4831,5.4835,5.4793,5.4793,5.4793,5.4793,0,5.48,5.4806,5.4814,5.4816,5.4818,5.4826,5.482,5.4823,5.4817,5.4814,5.4822,5.4819,5.482,5.4822,5.4816,5.4833,5.4829,5.482,5.4806,5.4828,5.4836,5.4839,5.4795,5.4795,5.4794,5.4794,0,0,5.4831,5.483,5.4833,5.4834,5.4833,5.4838,5.4846,5.4849,5.4852,5.4852,5.4859,5.4864,5.4856,5.4856,5.4849,5.4856,5.4876,5.4846,5.4846,5.4853,5.4896,5.4903,5.4907,5.4871,5.4871,5.4872,5.4896,0,5.4852,5.4867,5.4862,5.4877,5.4883,5.4873,5.488,5.488,5.4877,5.4881,5.4877,5.4881,5.487,5.4871,5.4877,5.4873,5.4885,5.4871,5.4876,5.4877,5.4878,5.4911,5.4918,5.4942,5.4899,5.49,5.49,0,5.4879,5.4883,5.4899,5.4899,5.4901,5.4908,5.4911,5.4915,5.4915,5.4913,5.4914,5.4906,5.4914,5.4901,5.4912,5.4903,5.4905,5.4903,5.4904,5.4904,5.489,5.4912,5.4949,5.4952,5.4905,5.4905,5.4904,0,5.4901,5.491,5.4921,5.4922,5.4922,5.4927,5.4927,5.4927,5.4929,5.4932,5.4934,5.4936,5.4938,5.494,5.4934,5.4925,5.4945,5.4932,5.4944,5.4944,5.4948,5.4948,5.4986,5.4949,5.4949,5.4949,5.4949,0,5.4926,5.4936,5.4931,5.4938,5.495,5.4943,5.4955,5.4953,5.4954,5.496,5.495,5.4956,5.4947,5.4952,5.4947,5.4957,5.4958,5.4956,5.4955,5.4957,5.4957,5.4958,5.4957,5.495,5.495,5.4949,5.4949,0,5.4952,5.4949,5.4961,5.4961,5.4961,5.4969,5.4969,5.4975,5.4972,5.498,5.4982,5.4977,5.4983,5.4977,5.4981,5.4978,5.4992,5.4988,5.4993,5.4992,5.5004,5.5003,5.5044,5.5049,5.5009,5.5009,5.5009,0,5.4968,5.4976,5.4978,5.4982,5.4983,5.499,5.4993,5.4988,5.4991,5.4993,5.5,5.5005,5.5009,5.5018,5.5014,5.5018,5.5014,5.5028,5.5015,5.5018,5.5015,5.5015,5.5016,5.5031,5.5032,5.5032,5.5032,0,5.4997,5.4996,5.5002,5.5008,5.5013,5.5017,5.502,5.5024,5.5018,5.5023,5.5029,5.5032,5.5038,5.5044,5.5047,5.5046,5.5038,5.5037,5.504,5.5043,5.5045,5.5045,5.5001,5.5036,5.5035,5.5035,5.5035,5.5035,5.5019,5.5027,5.503,5.5037,5.5039,5.5043,5.505,5.5049,5.5054,5.506,5.5056,5.5064,5.5065,5.5069,5.5069,5.5075,5.5069,5.5073,5.5074,5.5075,5.5078,5.5045,5.5075,5.5075,5.5075,5.5075,5.5075,0,5.5049,5.5051,5.5058,5.5064,5.507,5.5064,5.5067,5.5072,5.508,5.5082,5.5087,5.5095,5.5101,5.5099,5.5103,5.5109,5.5105,5.511,5.511,5.511,5.5082,5.508,5.5113,5.5113,5.5113,5.5113,5.5113,5.5113,5.5065,5.5078,5.5077,5.5091,5.5093,5.5102,5.5105,5.5108,5.511,5.512,5.5126,5.5125,5.5125,5.5131,5.5136,5.5135,5.5137,5.5143,5.5141,5.5116,5.5112,5.5108,5.5106,5.5144,5.5144,5.5169,5.5169,5.5169]}]]